DateTimeUTC,F1_A11,F1_S11,BsB_S11,BsG_S11,BsR_S11,BbsB_S11,BbsG_S11,BbsR_S11,BaB_A11,BaG_A11,BaR_A11,Tu_S11,T_S11,Uu_S11,U_S11,P_S11,T1_A11
2021-05-08T10:00:00Z,00000200,21000000,,,,,,,-000.21,0000.02,0000.56,15.9,23.3,,00.0,0670.9,30.8
2021-05-08T10:01:00Z,00000200,21000000,,,,,,,0000.44,-000.00,-000.17,15.9,23.3,,00.0,0670.9,30.8
2021-05-08T10:02:00Z,00000200,21000000,,,,,,,0000.13,0000.17,0000.02,15.9,23.3,,00.0,0670.9,30.8
2021-05-08T10:03:00Z,00000200,61000000,,,,,,,0000.51,0000.50,0000.43,15.9,23.3,,00.0,0670.9,30.8
2021-05-08T10:04:00Z,00000200,41000000,0000.69,0000.01,0000.25,-000.03,0000.25,0000.07,0000.17,0000.02,0000.02,16.0,23.0,00.3,00.2,0671.8,30.8
2021-05-08T10:05:00Z,00000200,01000000,0000.74,0000.26,0000.33,0000.31,-000.03,0000.08,0000.03,0000.31,-000.13,16.0,22.9,00.3,00.2,0671.9,30.8
2021-05-08T10:06:00Z,00000200,01000000,0000.32,0000.04,0000.18,-000.02,-000.12,0000.10,0000.41,0000.02,0000.38,16.0,22.9,00.4,00.2,0671.8,30.8
2021-05-08T10:07:00Z,00000200,01000000,0000.42,0000.28,0000.21,-000.09,0000.03,-000.01,-000.09,0000.16,-000.09,16.0,22.8,00.4,00.2,0671.8,30.8
2021-05-08T10:08:00Z,00000200,01000000,0000.10,0000.22,0000.27,0000.34,0000.03,-000.04,0000.38,0000.16,0000.17,16.0,22.8,00.4,00.3,0671.8,30.8
2021-05-08T10:09:00Z,00000200,01000000,0000.96,0000.29,0000.40,0000.12,-000.09,0000.13,-000.14,0000.28,0000.03,15.9,22.8,00.6,00.4,0671.8,30.8
2021-05-08T10:10:00Z,00000200,01000000,0000.83,-000.13,0000.21,0000.08,-000.11,-000.24,0000.28,0000.21,0000.48,15.9,22.8,00.5,00.3,0671.8,30.8
2021-05-08T10:11:00Z,00000200,01000000,0000.53,-000.03,0000.18,-000.12,-000.09,0000.13,0000.03,-000.29,0000.04,15.9,22.8,00.5,00.3,0671.8,30.8
2021-05-08T10:12:00Z,00000200,01000000,0000.40,0000.09,0000.12,0000.40,0000.17,-000.12,0000.00,0000.37,-000.15,15.9,22.8,00.6,00.4,0671.8,30.8
2021-05-08T10:13:00Z,00000200,01000000,0000.67,-000.25,0000.46,0000.28,-000.23,0000.21,0000.10,-000.02,0000.08,16.0,22.8,00.5,00.3,0671.8,30.8
2021-05-08T10:14:00Z,00000200,01000000,0000.97,0000.36,0000.28,0000.51,0000.06,0000.12,0000.01,0000.01,-000.06,16.0,22.8,00.5,00.4,0671.7,30.9
2021-05-08T10:15:00Z,00000200,01000000,0000.25,0000.05,0000.00,0000.19,-000.00,0000.09,0000.15,0000.33,0000.20,16.1,22.8,00.4,00.3,0671.7,30.9
2021-05-08T10:16:00Z,00000200,01000000,0000.64,0000.02,0000.11,-000.17,0000.07,0000.06,0000.28,-000.09,0000.25,16.2,22.9,00.5,00.3,0671.7,30.9
2021-05-08T10:17:00Z,00000200,01000000,0000.54,-000.20,0000.27,0000.68,-000.20,0000.07,0000.56,0000.36,0000.28,16.3,22.9,00.6,00.4,0671.7,30.9
2021-05-08T10:18:00Z,00000200,01000000,-000.37,0000.09,0000.08,-000.04,0000.06,0000.09,-000.10,0000.23,-000.21,16.3,22.9,00.5,00.3,0671.7,30.9
2021-05-08T10:19:00Z,00000200,01000000,0000.67,-000.09,0000.12,0000.34,0000.11,0000.15,0000.52,0000.13,0000.42,16.4,23.0,00.5,00.3,0671.7,30.9
2021-05-08T10:20:00Z,00000200,01000000,0000.85,0000.07,0000.39,0000.51,-000.19,0000.12,-000.25,0000.16,0000.08,16.5,23.0,00.5,00.3,0671.8,30.9
2021-05-08T10:21:00Z,00000200,01000000,0000.34,0000.23,0000.23,-000.20,0000.01,-000.13,0000.36,0000.06,0000.07,16.6,23.1,00.5,00.3,0671.8,30.9
2021-05-08T10:22:00Z,00000200,01000000,0000.93,0000.00,0000.17,0000.30,0000.23,-000.13,0000.08,0000.10,-000.03,16.6,23.1,00.4,00.3,0671.8,31.0
2021-05-08T10:23:00Z,00000200,01000000,-000.50,0000.28,0000.18,-000.12,-000.05,-000.08,0000.29,0000.50,0000.20,16.6,23.1,00.4,00.3,0671.8,30.9
2021-05-08T10:24:00Z,00000200,01000000,0000.23,0000.12,0000.33,0000.31,-000.00,0000.37,0000.05,0000.03,0000.48,16.6,23.1,00.5,00.3,0671.8,30.9
2021-05-08T10:25:00Z,00000200,01000000,0000.28,0000.52,0000.20,0000.19,0000.05,0000.25,0000.32,0000.24,0000.16,16.6,23.1,00.5,00.4,0671.8,30.9
2021-05-08T10:26:00Z,00000200,01000000,0000.68,-000.15,0000.04,0000.36,0000.07,-000.05,-000.05,-000.15,-000.12,16.6,23.1,00.6,00.4,0671.8,30.9
2021-05-08T10:27:00Z,00000200,01000000,0000.54,0000.07,0000.63,-000.15,0000.14,0000.17,0000.40,0000.21,0000.12,16.5,23.1,00.5,00.3,0671.8,30.9
2021-05-08T10:28:00Z,00000200,01000000,0000.77,0000.09,0000.16,0000.14,-000.06,0000.05,0000.23,0000.53,0000.28,16.5,23.1,00.5,00.3,0671.7,30.9
2021-05-08T10:29:00Z,00000200,01000000,0000.30,0000.46,0000.37,0000.34,0000.17,0000.22,0000.20,-000.03,0000.23,16.5,23.1,00.6,00.4,0671.7,30.9
2021-05-08T10:30:00Z,00000200,01000000,0000.46,0000.43,0000.34,0000.37,0000.15,0000.24,0000.11,0000.12,-000.12,16.5,23.1,00.5,00.3,0671.7,30.9
2021-05-08T10:31:00Z,00000200,01000000,-000.09,0000.06,0000.58,0000.63,0000.16,0000.22,0000.17,0000.44,0000.15,16.5,23.0,00.5,00.4,0671.7,30.9
2021-05-08T10:32:00Z,00000200,01000000,0001.03,0000.02,0000.25,0000.08,-000.00,-000.01,0000.25,-000.14,-000.09,16.5,23.0,00.5,00.4,0671.7,30.9
2021-05-08T10:33:00Z,00000200,01000000,0000.65,0000.09,0000.19,0000.14,-000.02,-000.09,-000.13,0000.04,0000.35,16.4,23.0,00.5,00.4,0671.7,30.9
2021-05-08T10:34:00Z,00000200,01000000,0000.78,0000.00,-000.08,0000.55,0000.39,0000.04,0000.44,0000.32,-000.13,16.4,23.0,00.6,00.4,0671.7,30.8
2021-05-08T10:35:00Z,00000200,01000000,0000.51,0000.20,0000.01,0000.17,0000.12,-000.32,0000.30,0000.43,0000.37,16.4,23.0,00.7,00.5,0671.7,30.8
2021-05-08T10:36:00Z,00000200,01000000,0000.01,0000.19,0000.45,0000.27,0000.07,0000.09,0000.34,0000.08,0000.45,16.4,23.0,00.8,00.6,0671.7,30.8
2021-05-08T10:37:00Z,00000200,01000000,0000.78,-000.06,0000.18,-000.20,0000.09,0000.12,-000.00,0000.38,-000.15,16.4,23.0,00.7,00.5,0671.7,30.8
2021-05-08T10:38:00Z,00000200,01000000,0000.77,0000.12,0000.02,-000.16,0000.17,0000.07,0000.37,-000.08,0000.01,16.4,22.9,00.7,00.5,0671.7,30.8
2021-05-08T10:39:00Z,00000200,01000000,0000.03,0000.37,-000.08,0000.50,0000.10,0000.01,-000.05,-000.07,-000.02,16.3,22.9,00.7,00.5,0671.7,30.8
2021-05-08T10:40:00Z,00000200,01000000,0000.36,0000.29,0000.28,0000.23,-000.06,0000.05,0000.07,0000.27,0000.32,16.3,22.9,00.7,00.4,0671.7,30.8
2021-05-08T10:41:00Z,00000200,01000000,0001.07,0000.15,0000.23,-000.05,0000.09,0000.24,0000.61,0000.51,0000.16,16.3,22.9,00.7,00.4,0671.7,30.8
2021-05-08T10:42:00Z,00000200,01000000,0000.44,0000.14,0000.33,0000.29,-000.02,0000.02,0000.03,-000.25,0000.14,16.3,22.9,00.8,00.6,0671.7,30.8
2021-05-08T10:43:00Z,00000200,01000000,0000.84,0000.15,0000.48,-000.14,0000.06,-000.04,-000.13,0000.21,-000.29,16.3,22.9,00.8,00.5,0671.7,30.8
2021-05-08T10:44:00Z,00000200,01000000,0001.00,0000.06,0000.28,0000.56,0000.04,-000.19,0000.13,0000.04,0000.31,16.3,22.9,00.8,00.5,0671.7,30.8
2021-05-08T10:45:00Z,00000200,01000000,0000.89,0000.02,0000.10,0000.46,-000.09,0000.12,0000.24,0000.23,-000.14,16.2,22.9,00.8,00.5,0671.7,30.8
2021-05-08T10:46:00Z,00000200,01000000,0000.64,-000.19,0000.04,0000.04,0000.12,0000.16,-000.03,-000.15,0000.39,16.2,22.8,00.6,00.4,0671.7,30.8
2021-05-08T10:47:00Z,00000200,01000000,0001.04,0000.08,0000.34,0000.23,0000.02,0000.25,0000.66,0000.43,0000.22,16.2,22.8,00.8,00.5,0671.7,30.8
2021-05-08T10:48:00Z,00000200,01000000,0001.09,0000.17,0000.33,0000.51,0000.04,-000.08,-000.16,0000.10,-000.14,16.2,22.8,00.8,00.5,0671.7,30.8
2021-05-08T10:49:00Z,00000200,01000000,0001.00,0000.16,0000.25,0000.29,0000.06,0000.08,0000.34,0000.20,0000.25,16.2,22.8,00.7,00.5,0671.7,30.8
2021-05-08T10:50:00Z,00000200,01000000,0000.51,0000.24,0000.10,0000.77,-000.04,0000.09,0000.20,0000.35,0000.24,16.2,22.8,00.8,00.5,0671.6,30.8
2021-05-08T10:51:00Z,00000200,01000000,0000.72,-000.04,0000.36,-000.11,-000.03,0000.01,0000.23,0000.02,-000.01,16.2,22.8,00.8,00.6,0671.6,30.8
2021-05-08T10:52:00Z,00000200,01000000,0000.52,0000.34,-000.02,0000.80,-000.10,-000.04,0000.05,0000.23,-000.05,16.2,22.8,00.9,00.6,0671.6,30.8
2021-05-08T10:53:00Z,00000200,01000000,0000.54,0000.26,0000.38,0000.57,-000.07,0000.07,0000.51,0000.14,0000.22,16.2,22.7,00.9,00.6,0671.6,30.8
2021-05-08T10:54:00Z,00000200,01000000,0001.39,0000.16,0000.33,0000.01,-000.01,-000.09,0000.09,0000.42,0000.55,16.1,22.7,00.9,00.6,0671.6,30.8
2021-05-08T10:55:00Z,00000200,01000000,0000.32,-000.07,0000.37,0000.05,-000.26,0000.10,0000.19,-000.07,-000.22,16.1,22.7,01.0,00.7,0671.6,30.8
2021-05-08T10:56:00Z,00000200,01000000,0000.66,0000.13,0000.26,0000.44,0000.03,0000.25,0000.30,0000.33,0000.25,16.1,22.7,01.0,00.6,0671.6,30.8
2021-05-08T10:57:00Z,00000200,41000000,,,,,,,-000.12,-000.44,-000.40,16.2,22.7,01.2,00.8,0671.7,30.8
2021-05-08T10:58:00Z,00000200,61000000,,,,,,,-000.00,0000.34,0000.31,15.9,22.9,00.7,00.4,0670.6,30.8
2021-05-08T10:59:00Z,00000200,21000000,,,,,,,0000.04,0000.16,0000.10,15.9,23.0,00.6,00.4,0670.6,30.9
